Location: Peebles
(55.6412°N, 3.1714°W)
Time: 18:11:01
(UTC+01:00)

USA 238 DEB - Pass Details

Date: 25 January 2022
Orbit: 969 x 1243 km, 63.4° (Epoch: 04 May)

Event Time Altitude Azimuth Distance (km) Brightness Sun altitude
Rises 20:02:12 0° 281° (W) 3,792 7.8 -29.1°
Reaches altitude 10° 20:04:54 10° 287° (WNW) 2,875 6.9 -29.4°
Maximum altitude 20:11:26 45° 0° (N) 1,466 4.4 -30.3°
Enters shadow 20:12:21 43° 21° (NNE) 1,516 4.3 -30.5°
